User: anonymous
Location: Utrecht
(52.0830°N, 5.1330°E)
Time: 15:53:00
(UTC+02:00)
Language:

Cosmos 1092 Rocket - Orbit

View from above orbital plane
View from above orbital plane
View from above satellite
View from above satellite

Ground track
Ground track

The orbit data is extracted from the following two-line orbital elements,

1 11327U 79030B   14212.54085613  .00000065  00000-0  50905-4 0  8044
2 11327 082.9518 356.7010 0026684 241.7163 163.1587 13.76938267774417
Epoch (UTC): 31 July 2014 12:58:49
Eccentricity: 0.0026684
inclination: 82.9518°
perigee height: 955 km
apogee height: 994 km
right ascension of ascending node: 356.7010°
argument of perigee: 241.7163°
revolutions per day: 13.76938267
mean anomaly at epoch: 163.1587°
orbit number at epoch: 77441

The dashed part of the orbit path shows where the satellite is in the earth's shadow,  

DLR